This is the latest recevied weather packets stored in our database for station/object YB3RDW-13. If no packets are shown the sender has not sent any weather packets the latest 10 day(s).
| Time | Temp. | Humidity | Pressure | Rain* | Wind** | Luminosity | Snow |
|---|---|---|---|---|---|---|---|
| 1777954018 | 32.22° C | 68% | 1012 hPa | 0 mm | - | 522 W/m² | - |
| 1777953717 | 32.22° C | 69% | 1012 hPa | 0 mm | - | 301 W/m² | - |
| 1777953418 | 32.22° C | 68% | 1012 hPa | 0 mm | - | 600 W/m² | - |
| 1777953118 | 32.22° C | 68% | 1012 hPa | 0 mm | - | 621 W/m² | - |
| 1777952817 | 31.67° C | 69% | 1012 hPa | 0 mm | - | 598 W/m² | - |
| 1777952519 | 32.22° C | 68% | 1012 hPa | 0 mm | - | 421 W/m² | - |
| 1777952218 | 31.67° C | 69% | 1012 hPa | 0 mm | - | 531 W/m² | - |
| 1777951918 | 32.22° C | 69% | 1012 hPa | 0 mm | - | 547 W/m² | - |
| 1777951617 | 32.22° C | 69% | 1012 hPa | 0 mm | - | 560 W/m² | - |
| 1777951318 | 31.67° C | 70% | 1013 hPa | 0 mm | - | 581 W/m² | - |
| 1777951017 | 32.22° C | 69% | 1013 hPa | 0 mm | - | 367 W/m² | - |
| 1777950717 | 32.22° C | 68% | 1013 hPa | 0 mm | - | 601 W/m² | - |
| 1777950417 | 31.67° C | 71% | 1013 hPa | 0 mm | - | 610 W/m² | - |
| 1777950119 | 31.11° C | 71% | 1013 hPa | 0 mm | - | 562 W/m² | - |
| 1777949819 | 31.11° C | 71% | 1013 hPa | 0 mm | - | 232 W/m² | - |
| 1777949519 | 31.67° C | 72% | 1013 hPa | 0 mm | - | 547 W/m² | - |
| 1777949218 | 31.67° C | 72% | 1013 hPa | 0 mm | - | 403 W/m² | - |
| 1777948920 | 31.67° C | 72% | 1013 hPa | 0 mm | - | 527 W/m² | - |
| 1777948328 | 31.11° C | 72% | 1013 hPa | 0 mm | - | 459 W/m² | - |
| 1777948017 | 30.56° C | 74% | 1013 hPa | 0 mm | - | 399 W/m² | - |
| 1777947720 | 31.11° C | 74% | 1013 hPa | 0 mm | - | 230 W/m² | - |
| 1777947419 | 31.11° C | 74% | 1013 hPa | 0 mm | - | 344 W/m² | - |
| 1777947118 | 30.56° C | 74% | 1013 hPa | 0 mm | - | 402 W/m² | - |
| 1777946819 | 30.56° C | 76% | 1013 hPa | 0 mm | - | 426 W/m² | - |
| 1777946517 | 30.56° C | 76% | 1013 hPa | 0 mm | - | 323 W/m² | - |
* Rain latest hour (hover to see other rain measurements)
** Current wind speed in m/s (hover to see current wind gust speed)